Date String (YYYY-MM-DD hh:mm:ss) UTC,Instrument flags,Ambient pressure (hPa),Sample flow (lpm),Bypass flow (lpm),Sample temperature (°C),Ambient temperature (°C),ASC tube jacket temperature (°C),LED temperature (°C),Box temperature (°C),Sample RH (%),Span deviation,Mass concentration (μg/m³),Mass concentration (μg/m³),Mass concentration (μg/m³)
DateTimeUTC,F1_M11,P_M11,Q1_M11,Q2_M11,T1_M11,T2_M11,T3_M11,T4_M11,T5_M11,U1_M11,ZSPAN_M11,X0_M11,X2_M11,X1_M11
2023-01-11 21:00:00,,0820.2,5.00,0.00,22.2,21.7,00.0,31.0,24.1,21.7,0000.0,0009.00,0008.10,0007.92
2023-01-11 21:01:00,,0820.2,5.00,0.00,22.3,22.6,00.0,31.0,24.4,21.5,0000.0,0009.06,0008.14,0007.95
2023-01-11 21:02:00,,0820.2,5.00,0.00,22.4,22.7,00.0,31.1,24.5,21.3,0000.0,0009.09,0008.17,0007.97
2023-01-11 21:03:00,,0820.2,4.99,0.00,22.4,22.2,00.0,31.1,24.3,21.2,0000.0,0009.08,0008.19,0008.01
2023-01-11 21:04:00,,0820.2,5.00,0.00,22.4,21.8,00.0,31.2,24.2,21.2,0000.0,0009.18,0008.22,0008.04
2023-01-11 21:05:00,,0820.2,5.01,0.00,22.4,21.6,00.0,31.2,24.1,21.2,0000.0,0009.29,0008.29,0008.08
2023-01-11 21:06:00,,0820.2,4.99,0.00,22.4,21.5,00.0,31.2,24.1,21.1,0000.0,0009.60,0008.35,0008.12
2023-01-11 21:07:00,,0820.2,5.00,0.00,22.4,21.4,00.0,31.2,24.2,21.1,0000.0,0009.63,0008.37,0008.13
2023-01-11 21:08:00,,0820.2,4.99,0.00,22.4,21.4,00.0,31.3,24.2,21.1,0000.0,0009.57,0008.35,0008.14
2023-01-11 21:09:00,,0820.2,5.00,0.00,22.4,21.3,00.0,31.3,24.2,21.1,0000.0,0009.54,0008.33,0008.13
2023-01-11 21:10:00,,0820.2,4.99,0.00,22.4,21.2,00.0,31.3,24.1,21.1,0000.0,0009.47,0008.27,0008.07
2023-01-11 21:11:00,,0820.3,4.99,0.00,22.4,21.1,00.0,31.3,24.1,21.2,0000.0,0009.43,0008.20,0008.01
2023-01-11 21:12:00,,0820.4,5.00,0.00,22.4,21.0,00.0,31.3,24.1,21.3,0000.0,0009.29,0008.06,0007.90
2023-01-11 21:13:00,,0820.4,5.00,0.00,22.4,21.0,00.0,31.3,24.1,21.3,0000.0,0009.14,0007.92,0007.77
2023-01-11 21:14:00,,0820.5,5.00,0.00,22.3,21.0,00.0,31.3,24.1,21.5,0000.0,0009.06,0007.81,0007.65
2023-01-11 21:15:00,,0820.6,5.01,0.00,22.3,20.9,00.0,31.2,24.0,21.6,0000.0,0008.86,0007.68,0007.54
2023-01-11 21:16:00,,0820.6,5.00,0.00,22.3,20.9,00.0,31.2,24.0,21.5,0000.0,0008.66,0007.52,0007.42
2023-01-11 21:17:00,,0820.6,5.00,0.00,22.3,20.9,00.0,31.2,24.0,21.5,0000.0,0008.28,0007.38,0007.29
2023-01-11 21:18:00,,0820.6,5.01,0.00,22.3,20.9,00.0,31.2,24.0,21.5,0000.0,0008.30,0007.29,0007.20
2023-01-11 21:19:00,,0820.6,5.00,0.00,22.3,20.9,00.0,31.2,24.0,21.5,0000.0,0008.21,0007.19,0007.10
2023-01-11 21:20:00,,0820.6,4.99,0.00,22.2,20.9,00.0,31.2,24.0,21.5,0000.0,0008.17,0007.12,0007.04
2023-01-11 21:21:00,,0820.6,4.99,0.00,22.2,20.9,00.0,31.2,23.9,21.5,0000.0,0008.16,0007.09,0007.00
2023-01-11 21:22:00,,0820.6,5.00,0.00,22.2,21.0,00.0,31.2,23.9,21.6,0000.0,0008.12,0007.07,0006.99
2023-01-11 21:23:00,,0820.6,5.00,0.00,22.2,21.0,00.0,31.2,24.0,21.6,0000.0,0008.14,0007.08,0007.00
2023-01-11 21:24:00,,0820.7,5.00,0.00,22.2,21.0,00.0,31.2,24.0,21.6,0000.0,0008.20,0007.12,0007.04
2023-01-11 21:25:00,,0820.7,5.00,0.00,22.2,21.0,00.0,31.2,24.0,21.6,0000.0,0008.24,0007.15,0007.06
2023-01-11 21:26:00,,0820.7,5.00,0.00,22.2,21.0,00.0,31.2,23.9,21.7,0000.0,0008.27,0007.18,0007.09
2023-01-11 21:27:00,,0820.8,5.00,0.00,22.2,21.0,00.0,31.1,24.0,21.7,0000.0,0008.30,0007.21,0007.12
2023-01-11 21:28:00,,0820.9,4.99,0.00,22.2,21.0,00.0,31.1,23.9,21.7,0000.0,0008.42,0007.25,0007.17
2023-01-11 21:29:00,,0821.0,5.00,0.00,22.2,21.0,00.0,31.1,23.9,21.7,0000.0,0008.67,0007.27,0007.21
2023-01-11 21:30:00,,0820.9,5.00,0.00,22.2,21.0,00.0,31.1,23.9,21.7,0000.0,0008.78,0007.34,0007.27
2023-01-11 21:31:00,,0820.9,4.99,0.00,22.2,21.0,00.0,31.1,23.9,21.7,0000.0,0008.88,0007.41,0007.33
2023-01-11 21:32:00,,0821.0,4.99,0.00,22.2,20.9,00.0,31.1,23.9,21.8,0000.0,0009.00,0007.48,0007.39
2023-01-11 21:33:00,,0821.0,5.01,0.00,22.2,20.9,00.0,31.1,23.9,21.8,0000.0,0009.06,0007.53,0007.44
2023-01-11 21:34:00,,0821.0,5.00,0.00,22.2,20.9,00.0,31.1,23.9,21.7,0000.6,0009.07,0007.55,0007.47
2023-01-11 21:35:00,,0821.0,5.00,0.00,22.2,20.9,00.0,31.1,23.9,21.8,0001.1,0009.12,0007.56,0007.49
2023-01-11 21:36:00,,0821.1,4.99,0.00,22.2,20.9,00.0,31.1,23.9,21.9,0000.9,0009.17,0007.60,0007.52
2023-01-11 21:37:00,,0821.1,4.99,0.00,22.1,21.0,00.0,31.1,23.9,21.9,0001.8,0009.22,0007.62,0007.55
2023-01-11 21:38:00,,0821.0,5.01,0.00,22.2,21.0,00.0,31.1,23.9,21.8,0001.2,0009.25,0007.61,0007.53
2023-01-11 21:39:00,,0821.1,5.00,0.00,22.1,21.0,00.0,31.1,23.9,21.8,0000.9,0009.20,0007.58,0007.51
2023-01-11 21:40:00,,0821.2,5.00,0.00,22.1,21.0,00.0,31.1,23.9,21.8,0000.3,0008.87,0007.53,0007.45
2023-01-11 21:41:00,,0821.2,5.00,0.00,22.1,21.0,00.0,31.1,23.9,21.8,0000.5,0008.77,0007.46,0007.39
2023-01-11 21:42:00,,0821.2,5.00,0.00,22.1,20.9,00.0,31.1,23.9,21.7,0000.5,0008.76,0007.40,0007.32
2023-01-11 21:43:00,,0821.2,5.00,0.00,22.1,20.8,00.0,31.1,23.9,21.7,0000.5,0008.68,0007.31,0007.23
2023-01-11 21:44:00,,0821.2,5.00,0.00,22.1,20.8,00.0,31.1,23.8,21.7,0000.4,0008.61,0007.21,0007.13
2023-01-11 21:45:00,,0821.2,5.00,0.00,22.1,20.8,00.0,31.0,23.9,21.7,0000.3,0008.54,0007.11,0007.03
2023-01-11 21:46:00,,0821.3,5.01,0.00,22.2,21.5,00.0,31.0,24.1,21.6,0000.5,0008.51,0007.03,0006.94
2023-01-11 21:47:00,,0821.4,5.00,0.00,22.3,22.4,00.0,31.0,24.4,21.4,0000.4,0008.43,0006.93,0006.84
2023-01-11 21:48:00,,0821.4,4.99,0.00,22.4,22.9,00.0,31.1,24.6,21.3,0000.1,0008.33,0006.83,0006.73
2023-01-11 21:49:00,,0821.4,5.00,0.00,22.5,22.6,00.0,31.1,24.6,21.2,0000.2,0008.23,0006.75,0006.66
2023-01-11 21:50:00,,0821.4,5.00,0.00,22.5,22.3,00.0,31.2,24.5,21.2,0000.1,0008.17,0006.69,0006.60
2023-01-11 21:51:00,,0821.4,5.00,0.00,22.5,21.9,00.0,31.2,24.4,21.2,0000.3,0008.11,0006.65,0006.57
2023-01-11 21:52:00,,0821.4,4.99,0.00,22.5,21.5,00.0,31.2,24.3,21.2,0000.1,0008.04,0006.59,0006.52
2023-01-11 21:53:00,,0821.4,5.00,0.00,22.5,21.2,00.0,31.3,24.2,21.2,0000.0,0007.95,0006.53,0006.46
2023-01-11 21:54:00,,0821.5,5.00,0.00,22.4,21.0,00.0,31.3,24.1,21.2,0000.0,0007.86,0006.46,0006.40
2023-01-11 21:55:00,,0821.6,4.99,0.00,22.4,20.8,00.0,31.3,24.1,21.3,0000.0,0007.83,0006.42,0006.36
2023-01-11 21:56:00,,0821.6,5.00,0.00,22.4,20.8,00.0,31.3,24.1,21.4,0000.0,0007.82,0006.39,0006.32
2023-01-11 21:57:00,,0821.6,5.01,0.00,22.4,20.7,00.0,31.3,24.0,21.5,0000.0,0007.72,0006.33,0006.28
2023-01-11 21:58:00,,0821.6,4.99,0.00,22.3,20.7,00.0,31.3,24.0,21.4,0000.0,0007.68,0006.28,0006.23
2023-01-11 21:59:00,,0821.6,5.02,0.00,22.3,20.6,00.0,31.3,23.9,21.4,0000.0,0007.62,0006.22,0006.17
